AIC6 VAAH-VABB

Flight info

Callsign AIC6
Flight time 0h 56m
Altitude 37000
Route BVR1A BVR R458 BOFIN POKON2A
Aircraft A21N/M-SDE3FGHIRWY/LB1

Departure

Time 2026-04-24 08:56
Airport Sardar Vallabh Patel International Airport (VAAH)

Arrival

Time 2026-04-24 09:52
Airport Chhatrapati Shivaji Maharaj International Airport (VABB)
Time Latitude Longitude Altitude Speed Heading
2026-04-24 08:36 23.07068 72.61959 189 ft 0 kts 45°
2026-04-24 08:49 23.07063 72.61954 189 ft 2 kts 45°
2026-04-24 08:50 23.07052 72.61942 189 ft 2 kts 50°
2026-04-24 08:50 23.07046 72.61927 189 ft 2 kts 83°
2026-04-24 08:50 23.07047 72.61910 189 ft 2 kts 110°
2026-04-24 08:50 23.07053 72.61900 189 ft 0 kts 131°
2026-04-24 08:51 23.07058 72.61894 189 ft 0 kts 134°
2026-04-24 08:51 23.07058 72.61893 189 ft 0 kts 134°
2026-04-24 08:52 23.07056 72.61896 189 ft 1 kts 134°
2026-04-24 08:52 23.07046 72.61907 189 ft 3 kts 134°
2026-04-24 08:53 23.07037 72.61917 189 ft 4 kts 134°
2026-04-24 08:53 23.07017 72.61939 189 ft 6 kts 133°
2026-04-24 08:53 23.06975 72.61988 189 ft 10 kts 133°
2026-04-24 08:53 23.06935 72.62073 189 ft 14 kts 89°
2026-04-24 08:54 23.06884 72.62178 189 ft 17 kts 134°
2026-04-24 08:54 23.06790 72.62281 190 ft 20 kts 135°
2026-04-24 08:54 23.06759 72.62417 190 ft 21 kts 48°
2026-04-24 08:54 23.06874 72.62535 189 ft 24 kts 44°
2026-04-24 08:55 23.07161 72.62839 189 ft 91 kts 44°
2026-04-24 08:55 23.07777 72.63501 189 ft 150 kts 43°
2026-04-24 08:55 23.08638 72.64430 275 ft 187 kts 45°
2026-04-24 08:55 23.09560 72.65482 769 ft 191 kts 49°
2026-04-24 08:56 23.10100 72.66761 1420 ft 191 kts 83°
2026-04-24 08:56 23.10077 72.68207 2039 ft 194 kts 94°
2026-04-24 08:56 23.09944 72.69727 2417 ft 208 kts 97°
2026-04-24 08:56 23.09402 72.71244 2767 ft 226 kts 128°
2026-04-24 08:57 23.08231 72.72494 3112 ft 246 kts 141°
2026-04-24 08:57 23.06841 72.73737 3568 ft 264 kts 141°
2026-04-24 08:57 23.05394 72.75100 4067 ft 280 kts 139°
2026-04-24 08:57 23.03982 72.76518 4764 ft 285 kts 137°
2026-04-24 08:58 23.02546 72.78013 5587 ft 287 kts 136°
2026-04-24 08:58 23.01100 72.79510 6409 ft 289 kts 140°
2026-04-24 08:58 22.99325 72.80504 7151 ft 291 kts 169°
2026-04-24 08:58 22.97278 72.80485 7946 ft 291 kts 191°
2026-04-24 08:59 22.95260 72.80090 8728 ft 294 kts 191°
2026-04-24 08:59 22.93191 72.79693 9461 ft 298 kts 191°
2026-04-24 08:59 22.91109 72.79309 10192 ft 302 kts 190°
2026-04-24 08:59 22.88954 72.78923 10635 ft 318 kts 189°
2026-04-24 09:00 22.86693 72.78525 10974 ft 336 kts 189°
2026-04-24 09:00 22.84273 72.78102 11298 ft 354 kts 189°
2026-04-24 09:00 22.81740 72.77662 11597 ft 372 kts 189°
2026-04-24 09:00 22.79055 72.77195 11884 ft 389 kts 189°
2026-04-24 09:01 22.76304 72.76632 12287 ft 400 kts 196°
2026-04-24 09:01 22.73740 72.75382 12901 ft 403 kts 212°
2026-04-24 09:01 22.71545 72.73389 13569 ft 405 kts 227°
2026-04-24 09:01 22.69658 72.71048 14194 ft 409 kts 231°
2026-04-24 09:02 22.67787 72.68638 14780 ft 414 kts 231°
2026-04-24 09:02 22.65866 72.66185 15373 ft 418 kts 230°
2026-04-24 09:02 22.63957 72.63779 15944 ft 423 kts 230°
2026-04-24 09:02 22.61989 72.61311 16543 ft 426 kts 230°
2026-04-24 09:03 22.60015 72.58840 17120 ft 430 kts 230°
2026-04-24 09:03 22.58016 72.56340 17685 ft 434 kts 230°
2026-04-24 09:03 22.56016 72.53841 18277 ft 437 kts 230°
2026-04-24 09:03 22.53989 72.51308 18882 ft 439 kts 230°
2026-04-24 09:04 22.51953 72.48766 19468 ft 442 kts 230°
2026-04-24 09:04 22.49899 72.46217 20023 ft 445 kts 229°
2026-04-24 09:04 22.47550 72.43927 20539 ft 450 kts 217°
2026-04-24 09:04 22.44821 72.42177 21101 ft 453 kts 206°
2026-04-24 09:05 22.41803 72.40967 21667 ft 456 kts 198°
2026-04-24 09:05 22.38708 72.39937 22203 ft 459 kts 197°
2026-04-24 09:05 22.35584 72.38928 22723 ft 463 kts 197°
2026-04-24 09:05 22.32458 72.37917 23230 ft 466 kts 197°
2026-04-24 09:06 22.29315 72.36891 23739 ft 469 kts 197°
2026-04-24 09:06 22.26179 72.35860 24225 ft 471 kts 198°
2026-04-24 09:06 22.23022 72.34818 24719 ft 472 kts 197°
2026-04-24 09:06 22.19875 72.33774 25348 ft 470 kts 197°
2026-04-24 09:07 22.16718 72.32727 26001 ft 467 kts 197°
2026-04-24 09:07 22.13553 72.31679 26607 ft 465 kts 197°
2026-04-24 09:07 22.07300 72.29609 27742 ft 462 kts 197°
2026-04-24 09:08 22.04194 72.28580 28335 ft 459 kts 197°
2026-04-24 09:08 22.01099 72.27556 28920 ft 456 kts 197°
2026-04-24 09:08 21.98001 72.26532 29487 ft 454 kts 197°
2026-04-24 09:08 21.94954 72.25524 29974 ft 452 kts 197°
2026-04-24 09:09 21.91886 72.24511 30392 ft 453 kts 197°
2026-04-24 09:09 21.88850 72.23508 30704 ft 453 kts 197°
2026-04-24 09:09 21.82704 72.21540 30743 ft 454 kts 194°
2026-04-24 09:10 21.76384 72.20459 30749 ft 455 kts 185°
2026-04-24 09:10 21.69923 72.20592 30750 ft 456 kts 174°
2026-04-24 09:11 21.63607 72.21886 30759 ft 457 kts 167°
2026-04-24 09:11 21.57329 72.23546 30759 ft 456 kts 166°
2026-04-24 09:12 21.51051 72.25205 30764 ft 456 kts 167°
2026-04-24 09:12 21.44786 72.26844 30767 ft 456 kts 167°
2026-04-24 09:13 21.38548 72.28470 30763 ft 456 kts 167°
2026-04-24 09:13 21.32279 72.30101 30757 ft 457 kts 167°
2026-04-24 09:14 21.26038 72.31724 30764 ft 457 kts 167°
2026-04-24 09:14 21.19740 72.33359 30766 ft 457 kts 167°
2026-04-24 09:15 21.13487 72.34982 30767 ft 457 kts 167°
2026-04-24 09:15 21.07209 72.36610 30760 ft 457 kts 167°
2026-04-24 09:16 21.00915 72.38242 30757 ft 456 kts 167°
2026-04-24 09:16 20.94734 72.39843 30563 ft 451 kts 167°
2026-04-24 09:17 20.91628 72.40642 30317 ft 447 kts 167°
2026-04-24 09:17 20.88569 72.41425 30073 ft 447 kts 167°
2026-04-24 09:17 20.85504 72.42209 29825 ft 447 kts 167°
2026-04-24 09:17 20.82404 72.43002 29573 ft 448 kts 166°
2026-04-24 09:18 20.79322 72.43791 29321 ft 448 kts 166°
2026-04-24 09:18 20.76264 72.44572 29058 ft 449 kts 167°
2026-04-24 09:18 20.73098 72.45018 28784 ft 450 kts 178°
2026-04-24 09:18 20.69929 72.44846 28520 ft 450 kts 188°
2026-04-24 09:19 20.66807 72.44118 28254 ft 450 kts 197°
2026-04-24 09:19 20.63831 72.42979 27996 ft 451 kts 201°
2026-04-24 09:19 20.60877 72.41752 27736 ft 452 kts 202°
2026-04-24 09:19 20.57872 72.40492 27468 ft 453 kts 201°
2026-04-24 09:20 20.54880 72.39246 27207 ft 455 kts 201°
2026-04-24 09:20 20.51896 72.38013 26945 ft 456 kts 201°
2026-04-24 09:20 20.48884 72.36777 26683 ft 457 kts 201°
2026-04-24 09:20 20.45835 72.35530 26420 ft 458 kts 201°
2026-04-24 09:21 20.42840 72.34308 26161 ft 459 kts 201°
2026-04-24 09:21 20.39816 72.33076 25900 ft 460 kts 201°
2026-04-24 09:21 20.36781 72.31841 25641 ft 461 kts 201°
2026-04-24 09:21 20.33742 72.30606 25382 ft 463 kts 201°
2026-04-24 09:22 20.30669 72.29357 25120 ft 465 kts 201°
2026-04-24 09:22 20.27632 72.28123 24863 ft 465 kts 201°
2026-04-24 09:22 20.24538 72.26866 24602 ft 467 kts 201°
2026-04-24 09:22 20.21431 72.25605 24342 ft 468 kts 201°
2026-04-24 09:23 20.18358 72.24358 24083 ft 469 kts 200°
2026-04-24 09:23 20.15249 72.23096 23815 ft 470 kts 200°
2026-04-24 09:23 20.12158 72.21843 23550 ft 471 kts 200°
2026-04-24 09:23 20.09002 72.20564 23283 ft 473 kts 200°
2026-04-24 09:24 20.05896 72.19307 23022 ft 474 kts 200°
2026-04-24 09:24 20.02725 72.18023 22759 ft 475 kts 200°
2026-04-24 09:24 19.99606 72.16761 22506 ft 473 kts 200°
2026-04-24 09:24 19.96519 72.15513 22201 ft 465 kts 200°
2026-04-24 09:25 19.93490 72.14285 21907 ft 452 kts 200°
2026-04-24 09:25 19.90570 72.13104 21555 ft 442 kts 200°
2026-04-24 09:25 19.87680 72.11935 21170 ft 433 kts 200°
2026-04-24 09:25 19.84831 72.10783 20811 ft 424 kts 200°
2026-04-24 09:26 19.82079 72.09673 20464 ft 415 kts 200°
2026-04-24 09:26 19.79373 72.08714 20110 ft 406 kts 189°
2026-04-24 09:26 19.76598 72.08713 19774 ft 392 kts 165°
2026-04-24 09:26 19.74152 72.09855 19419 ft 376 kts 141°
2026-04-24 09:27 19.72220 72.11676 19093 ft 366 kts 132°
2026-04-24 09:27 19.70434 72.13596 18759 ft 359 kts 132°
2026-04-24 09:27 19.68658 72.15476 18424 ft 353 kts 133°
2026-04-24 09:27 19.66894 72.17278 18115 ft 347 kts 134°
2026-04-24 09:28 19.65139 72.19021 17762 ft 341 kts 134°
2026-04-24 09:28 19.63394 72.20723 17460 ft 335 kts 135°
2026-04-24 09:28 19.61676 72.22379 17171 ft 328 kts 135°
2026-04-24 09:28 19.59965 72.24017 16932 ft 323 kts 135°
2026-04-24 09:29 19.58288 72.25618 16697 ft 322 kts 135°
2026-04-24 09:29 19.56580 72.27245 16461 ft 321 kts 135°
2026-04-24 09:29 19.54913 72.28829 16197 ft 319 kts 136°
2026-04-24 09:29 19.53235 72.30422 15965 ft 318 kts 136°
2026-04-24 09:30 19.51557 72.32014 15697 ft 316 kts 136°
2026-04-24 09:30 19.49883 72.33601 15479 ft 315 kts 136°
2026-04-24 09:30 19.48242 72.35153 15265 ft 313 kts 136°
2026-04-24 09:30 19.46608 72.36701 15024 ft 312 kts 136°
2026-04-24 09:31 19.44957 72.38264 14770 ft 310 kts 136°
2026-04-24 09:31 19.43357 72.39780 14511 ft 309 kts 136°
2026-04-24 09:31 19.41742 72.41309 14295 ft 307 kts 136°
2026-04-24 09:31 19.40131 72.42833 14027 ft 306 kts 136°
2026-04-24 09:32 19.38556 72.44322 13759 ft 304 kts 136°
2026-04-24 09:32 19.36951 72.45841 13530 ft 303 kts 137°
2026-04-24 09:32 19.35373 72.47332 13300 ft 301 kts 137°
2026-04-24 09:32 19.33786 72.48832 13034 ft 300 kts 137°
2026-04-24 09:33 19.32216 72.50316 12781 ft 299 kts 137°
2026-04-24 09:33 19.30642 72.51801 12540 ft 297 kts 137°
2026-04-24 09:33 19.29086 72.53271 12284 ft 297 kts 137°
2026-04-24 09:33 19.27536 72.54733 12058 ft 296 kts 136°
2026-04-24 09:34 19.25973 72.56208 11841 ft 295 kts 136°
2026-04-24 09:34 19.24426 72.57666 11645 ft 292 kts 136°
2026-04-24 09:34 19.22919 72.59091 11488 ft 282 kts 135°
2026-04-24 09:34 19.21793 72.60702 11346 ft 268 kts 110°
2026-04-24 09:35 19.21494 72.62645 11301 ft 267 kts 90°
2026-04-24 09:35 19.21505 72.64646 11227 ft 267 kts 90°
2026-04-24 09:35 19.21515 72.66649 11235 ft 271 kts 90°
2026-04-24 09:35 19.21518 72.68677 11616 ft 272 kts 90°
2026-04-24 09:36 19.21514 72.70667 11758 ft 270 kts 90°
2026-04-24 09:36 19.21508 72.72672 11760 ft 269 kts 90°
2026-04-24 09:36 19.21502 72.74073 11762 ft 269 kts 91°
2026-04-24 09:36 19.21489 72.76425 11764 ft 268 kts 91°
2026-04-24 09:37 19.21478 72.78432 11759 ft 268 kts 91°
2026-04-24 09:37 19.21465 72.80434 11752 ft 268 kts 91°
2026-04-24 09:37 19.21452 72.82433 11762 ft 267 kts 91°
2026-04-24 09:37 19.21440 72.84418 11763 ft 268 kts 90°
2026-04-24 09:38 19.21426 72.86420 11763 ft 268 kts 90°
2026-04-24 09:38 19.21413 72.88396 11760 ft 267 kts 90°
2026-04-24 09:38 19.21399 72.90398 11767 ft 268 kts 91°
2026-04-24 09:38 19.21385 72.92423 11762 ft 269 kts 91°
2026-04-24 09:39 19.21371 72.94422 11763 ft 268 kts 91°
2026-04-24 09:39 19.21356 72.96413 11763 ft 267 kts 90°
2026-04-24 09:39 19.21341 72.98394 11763 ft 267 kts 90°
2026-04-24 09:39 19.21326 73.00376 11753 ft 267 kts 91°
2026-04-24 09:40 19.21310 73.02354 11754 ft 267 kts 90°
2026-04-24 09:40 19.21294 73.04361 11761 ft 267 kts 90°
2026-04-24 09:40 19.21280 73.06321 11749 ft 267 kts 91°
2026-04-24 09:40 19.21263 73.08334 11734 ft 267 kts 90°
2026-04-24 09:41 19.21247 73.10313 11481 ft 270 kts 90°
2026-04-24 09:41 19.21229 73.12334 11103 ft 269 kts 90°
2026-04-24 09:41 19.21212 73.14301 10796 ft 265 kts 90°
2026-04-24 09:41 19.21221 73.16277 10671 ft 263 kts 89°
2026-04-24 09:42 19.21244 73.18237 10708 ft 265 kts 89°
2026-04-24 09:42 19.21268 73.20213 10733 ft 265 kts 89°
2026-04-24 09:42 19.21291 73.22180 10736 ft 265 kts 89°
2026-04-24 09:42 19.21311 73.24142 10719 ft 264 kts 89°
2026-04-24 09:43 19.21330 73.26100 10728 ft 264 kts 89°
2026-04-24 09:43 19.21337 73.28062 10732 ft 263 kts 92°
2026-04-24 09:43 19.20821 73.29919 10435 ft 264 kts 123°
2026-04-24 09:43 19.19422 73.31185 10007 ft 270 kts 152°
2026-04-24 09:44 19.17548 73.31673 9611 ft 275 kts 178°
2026-04-24 09:44 19.15680 73.31281 9229 ft 278 kts 204°
2026-04-24 09:44 19.14128 73.30029 8848 ft 279 kts 232°
2026-04-24 09:44 19.13286 73.28193 8502 ft 277 kts 257°
2026-04-24 09:45 19.12906 73.26180 7950 ft 284 kts 260°
2026-04-24 09:45 19.12528 73.24051 6901 ft 301 kts 261°
2026-04-24 09:45 19.12119 73.21840 5843 ft 313 kts 260°
2026-04-24 09:45 19.11671 73.19514 4955 ft 323 kts 260°
2026-04-24 09:46 19.11212 73.17191 4590 ft 316 kts 260°
2026-04-24 09:46 19.10760 73.14928 4058 ft 307 kts 260°
2026-04-24 09:46 19.10336 73.12816 3583 ft 294 kts 260°
2026-04-24 09:46 19.09804 73.10697 3189 ft 280 kts 254°
2026-04-24 09:47 19.09298 73.08775 2961 ft 258 kts 263°
2026-04-24 09:47 19.09115 73.06951 2936 ft 238 kts 271°
2026-04-24 09:47 19.09095 73.05243 2907 ft 222 kts 274°
2026-04-24 09:47 19.09102 73.03590 2772 ft 218 kts 274°
2026-04-24 09:48 19.09094 73.02006 2577 ft 210 kts 274°
2026-04-24 09:48 19.09074 73.00475 2285 ft 205 kts 274°
2026-04-24 09:48 19.09050 72.99019 2050 ft 193 kts 273°
2026-04-24 09:48 19.09024 72.97622 1771 ft 177 kts 274°
2026-04-24 09:49 19.09003 72.96362 1528 ft 164 kts 274°
2026-04-24 09:49 19.08985 72.95193 1314 ft 151 kts 274°
2026-04-24 09:49 19.08971 72.94112 1145 ft 141 kts 273°
2026-04-24 09:49 19.08957 72.93085 976 ft 136 kts 273°
2026-04-24 09:50 19.08944 72.92080 819 ft 135 kts 273°
2026-04-24 09:50 19.08929 72.91070 655 ft 134 kts 273°
2026-04-24 09:50 19.08915 72.90069 487 ft 133 kts 272°
2026-04-24 09:50 19.08901 72.89081 318 ft 133 kts 272°
2026-04-24 09:51 19.08887 72.88097 149 ft 132 kts 272°
2026-04-24 09:51 19.08875 72.87118 44 ft 130 kts 271°
2026-04-24 09:51 19.08851 72.86179 34 ft 114 kts 269°
2026-04-24 09:51 19.08866 72.85516 28 ft 63 kts 269°
2026-04-24 09:52 19.08933 72.85252 26 ft 12 kts 312°
2026-04-24 09:52 19.08940 72.85244 26 ft 0 kts 311°
2026-04-24 09:52 19.08945 72.85238 26 ft 1 kts 311°
2026-04-24 09:52 19.08956 72.85224 25 ft 3 kts 307°
2026-04-24 09:53 19.08973 72.85201 25 ft 4 kts 308°
2026-04-24 09:53 19.08976 72.85197 25 ft 1 kts 309°
2026-04-24 09:53 19.08985 72.85186 25 ft 2 kts 316°
2026-04-24 09:53 19.09007 72.85169 25 ft 6 kts 329°
2026-04-24 09:54 19.09051 72.85154 25 ft 6 kts 356°
2026-04-24 09:54 19.09101 72.85152 25 ft 7 kts
2026-04-24 09:54 19.09130 72.85152 27 ft 2 kts 360°
2026-04-24 09:54 19.09134 72.85152 27 ft 0 kts 359°
2026-04-24 09:55 19.09140 72.85152 27 ft 1 kts 359°
2026-04-24 09:55 19.09147 72.85152 28 ft 0 kts 359°